Terminal Aerodrome Forecast
Issued by NWS Northern Indiana

Home | Current Version | Previous Version | Graphics & Text | Print | Product List | Glossary On
Versions: 1 2 3 4 5 6 7 8 9 10 11 12 13 14 15 16 17 18 19 20 21 22
000
FTUS43 KIWX 192300 AAA
TAFFWA
TAF AMD
KFWA 192340Z 2000/2018 23007KT P6SM VCTS SCT040CB BKN150
      TEMPO 2001/2003 -SHRA BKN040
     FM200300 23005KT P6SM SCT040 BKN250
     FM200600 23005KT 6SM BR SCT025
      TEMPO 2008/2012 3SM BR SCT015
     FM201400 27010KT P6SM SCT030=

USA.gov is the U.S. government's official web portal to all federal, state and local government web resources and services.